Location: Dal�� Lhota
(48.7500°N, 14.0167°E)
Time: 18:34:59
(UTC+00:00)

Explorer 7 - Pass Details

Date: 01 August 2021
Orbit: 484 x 676 km, 50.3° (Epoch: 21 September)

Event Time Altitude Azimuth Distance (km) Brightness Sun altitude
Rises 10:16:58 0° 285° (WNW) 2,728 10.2 57.3°
Reaches altitude 10° 10:19:30 10° 271° (W) 1,867 9.5 57.5°
Maximum altitude 10:22:52 23° 219° (SW) 1,264 9.2 57.7°
Drops below altitude 10° 10:26:24 10° 166° (SSE) 1,957 10.3 57.9°
Sets 10:29:07 0° 153° (SSE) 2,895 11.0 58.0°
